Flag for U.S.A. Weather past 2 weeks in Cumberland, Maryland, U.S.A.

Now
68 °F

Passing clouds.


Feels Like: 68 °F
Forecast: 57 / 74 °F
Wind: 12 mph from West

Location: Eastern West Virginia Regional Airport

Current Time: Jul 29, 2014 at 12:03:50 AM

Latest Report: Jul 28, 2014 at 10:53 PM


Visibility: 10 mi

Pressure: 29.87 "Hg

Humidity: 63%

Dew point: 55 °F

Location of CumberlandLocation

Historic Weather in Cumberland — Graph

°F

Cumberland temperature yesterday

Maximum temperature yesterday: 80 °F (at 12:53 PM)
Minimum temperature yesterday: 67 °F (at 4:53 AM)
Average temperature yesterday: 73 °F

Past Weeks' High & Low Weather Summary

 TemperatureHumidityPressure
High93 °F (Jul 23, 2:53 PM)93% (Jul 15, 6:53 AM)30.26 "Hg (Jul 15, 6:53 AM)
Low56 °F (Jul 18, 5:53 AM)32% (Jul 16, 4:53 PM)29.58 "Hg (Jul 28, 4:53 AM)
Average73 °F68%29.98 "Hg
* Reported Jul 13 10:53 PM — Jul 28 10:53 PM, Cumberland, Weather by CustomWeather, © 2014

Note: Actual official high and low records may vary slightly from our data, if they occured in-between our weather recording intervals... More about our weather records

Advertising

Cumberland weather history for previous 24 hours

 ConditionsComfort  
Time TempWeatherWind HumidityBarometerVisibility
10:53 PM
Jul 28
68 °FPassing clouds.12 mph63%29.87 "Hg10 mi
9:53 PM69 °FOvercast.10 mph63%29.85 "Hg10 mi
8:53 PM70 °FMostly cloudy.10 mph64%29.83 "Hg10 mi
7:53 PM71 °FOvercast.8 mph63%29.80 "Hg10 mi
6:53 PM72 °FScattered clouds.18 mph59%29.77 "Hg10 mi
5:53 PM76 °FMostly cloudy.20 mph52%29.73 "Hg10 mi
4:53 PM78 °FPassing clouds.21 mph48%29.71 "Hg10 mi
3:53 PM79 °FSunny.21 mph47%29.70 "Hg10 mi
2:53 PM79 °FPartly sunny.23 mph47%29.69 "Hg10 mi
1:53 PM76 °FBroken clouds.17 mph54%29.69 "Hg10 mi
12:53 PM80 °FSunny.18 mph44%29.69 "Hg10 mi
11:53 AM77 °FPartly sunny.16 mph47%29.70 "Hg10 mi
10:53 AM76 °FCloudy.10 mph52%29.68 "Hg10 mi
9:53 AM77 °FPassing clouds.15 mph52%29.67 "Hg10 mi
8:53 AM74 °FPartly sunny.8 mph62%29.65 "Hg10 mi
7:53 AM73 °FOvercast.12 mph66%29.63 "Hg10 mi
6:53 AM71 °FPassing clouds.13 mph76%29.61 "Hg10 mi
5:53 AM70 °FClear.7 mph76%29.59 "Hg10 mi
4:53 AM67 °FClear.7 mph87%29.58 "Hg10 mi
3:53 AM68 °FClear.6 mph84%29.59 "Hg10 mi
2:53 AM68 °FFog.5 mph90%29.61 "Hg0 mi
1:53 AM69 °FFog.No wind90%29.63 "Hg5 mi
12:53 AM69 °FPassing clouds.No wind87%29.63 "Hg7 mi
Weather by CustomWeather, © 2014

See weather overviewHow to use our weather pages